Weather WX

World > North America > United States > New York

Quaker Street, New York Regional Weather

Lat: 42.73N, Lon: 74.19W
Wx Zone: NYZ048
Warning FLW WEATHER ALERT - (More Info. Click Here) Warning
Feedback

Quaker Street, NY Regional Weather

Expires:201906161800;;169069
ASUS41 KALY 161710
RWRALY

NEW YORK STATE HOURLY WEATHER ROUNDUP
NATIONAL WEATHER SERVICE ALBANY NY
100 PM EDT SUN JUN 16 2019

NOTE: "FAIR" INDICATES FEW OR NO CLOUDS BELOW 12,000 FEET WITH NO
SIGNIFICANT WEATHER AND/OR NO OBSTRUCTIONS TO VISIBILITY.


NYZ032-033-038>043-046>054-057>066-NYZ062>081-082-084-161800-
EAST

  
CITY           SKY/WX    TMP DP  RH WIND       PRES   REMARKS
ALBANY         LGT RAIN  66  63  90 S5        29.84F FOG              
GLENS FALLS    LGT RAIN  65  63  93 S7        29.83F                  
POUGHKEEPSIE   CLOUDY    70  63  78 CALM      29.84F                  
NEWBURGH       DRIZZLE   70  66  88 CALM      29.86F                  
MONTGOMERY     LGT RAIN  67  65  93 CALM      29.85R FOG              
WHITE PLAINS   FAIR      74  62  66 S9        29.85F                  
ISLIP          PTSUNNY   76  66  71 S12       29.87F                  
NEW YORK CITY  PTSUNNY   79  62  56 S9        29.84F                  
CENTRAL PARK   PTSUNNY   76  64  66 VRB3      29.87F                  
$$


SKY/WX - Weather  TMP - Temperature  DP - Dew Point  RH - Relative Humidity
WIND - Wind Direction/Speed PRES - Barometric Pressure VSB - Visibility
WCI - Wind Chill Index E13G22 Wind - East Wind 13 mph/Gusts of 22 mph